Location: Izdebno
(52.6670°N, 16.2170°E)
Time: 05:00:41
(UTC+02:00)

A-11 Canister half - Pass Details

Date: 08 February 2023
Orbit: 1526 x 1682 km, 47.3° (Epoch: 25 March)

Event Time Altitude Azimuth Distance (km) Brightness Sun altitude
Rises 10:16:15 0° 284° (WNW) 4,693 11.2 18.1°
Reaches altitude 10° 10:19:33 10° 276° (W) 3,719 10.8 18.3°
Maximum altitude 10:27:49 37° 214° (SW) 2,273 10.5 18.9°
Drops below altitude 10° 10:36:17 10° 152° (SSE) 3,804 13.5 19.4°
Sets 10:39:43 0° 145° (SE) 4,810 13.1 19.6°
